Time,TemperatureF,DewpointF,PressureIn,WindDirection,WindDirectionDegrees,WindSpeedMPH,WindSpeedGustMPH,Humidity,HourlyPrecipIn,Conditions,Clouds,dailyrainin,SoftwareType,DateUTC
2013-03-07 00:00:00,45.5,16.0,28.71,SSE,157,1.6,5.4,29,0.00,,,0.00,Rainwise IP-100,2013-03-07 06:00:00,
2013-03-07 00:05:00,45.4,16.0,28.71,SSE,157,1.4,5.1,30,0.00,,,0.00,Rainwise IP-100,2013-03-07 06:05:00,
2013-03-07 00:10:00,45.3,16.0,28.71,SE,135,2.3,4.7,30,0.00,,,0.00,Rainwise IP-100,2013-03-07 06:10:00,
2013-03-07 00:15:00,45.2,16.0,28.71,SE,135,3.3,3.3,30,0.00,,,0.00,Rainwise IP-100,2013-03-07 06:15:00,
2013-03-07 00:20:00,45.1,16.0,28.71,SSE,157,1.6,3.7,30,0.00,,,0.00,Rainwise IP-100,2013-03-07 06:20:00,
2013-03-07 00:25:00,45.1,16.0,28.71,SSE,157,2.1,3.5,31,0.00,,,0.00,Rainwise IP-100,2013-03-07 06:25:00,
2013-03-07 00:30:00,45.0,16.0,28.71,SSE,157,2.8,3.5,31,0.00,,,0.00,Rainwise IP-100,2013-03-07 06:30:00,
2013-03-07 00:35:00,44.9,16.0,28.71,SSE,157,2.3,4.2,31,0.00,,,0.00,Rainwise IP-100,2013-03-07 06:35:00,
2013-03-07 00:40:00,44.7,16.0,28.70,SSE,157,2.3,4.4,31,0.00,,,0.00,Rainwise IP-100,2013-03-07 06:40:00,
2013-03-07 00:45:00,44.6,16.0,28.71,SSE,157,1.6,3.7,31,0.00,,,0.00,Rainwise IP-100,2013-03-07 06:45:00,
2013-03-07 00:50:00,44.6,18.0,28.70,SE,135,2.8,4.0,32,0.00,,,0.00,Rainwise IP-100,2013-03-07 06:50:00,
2013-03-07 00:55:00,44.5,18.0,28.70,SE,135,1.6,3.0,32,0.00,,,0.00,Rainwise IP-100,2013-03-07 06:55:00,
2013-03-07 01:00:00,44.3,16.0,28.71,SE,135,1.9,2.3,32,0.00,,,0.00,Rainwise IP-100,2013-03-07 07:00:00,
2013-03-07 01:05:00,44.2,16.0,28.70,SE,135,0.0,1.9,32,0.00,,,0.00,Rainwise IP-100,2013-03-07 07:05:00,
2013-03-07 01:10:00,44.1,16.0,28.70,SE,135,1.2,1.6,32,0.00,,,0.00,Rainwise IP-100,2013-03-07 07:10:00,
2013-03-07 01:15:00,44.0,16.0,28.70,SE,135,1.2,1.6,32,0.00,,,0.00,Rainwise IP-100,2013-03-07 07:15:00,
2013-03-07 01:20:00,43.9,16.0,28.70,SE,135,0.0,1.4,32,0.00,,,0.00,Rainwise IP-100,2013-03-07 07:20:00,
2013-03-07 01:25:00,43.8,18.0,28.70,SE,135,0.0,1.6,33,0.00,,,0.00,Rainwise IP-100,2013-03-07 07:25:00,
2013-03-07 01:30:00,43.6,18.0,28.70,SE,135,1.4,1.6,33,0.00,,,0.00,Rainwise IP-100,2013-03-07 07:30:00,
2013-03-07 01:35:00,43.3,16.0,28.69,SE,135,1.2,1.9,33,0.00,,,0.00,Rainwise IP-100,2013-03-07 07:35:00,
2013-03-07 01:40:00,43.1,16.0,28.70,SE,135,0.0,1.9,33,0.00,,,0.00,Rainwise IP-100,2013-03-07 07:40:00,
2013-03-07 01:45:00,43.0,16.0,28.70,SE,135,0.0,1.4,33,0.00,,,0.00,Rainwise IP-100,2013-03-07 07:45:00,
2013-03-07 01:48:00,43.0,16.0,28.70,SE,135,0.0,2.1,33,0.00,,,0.00,Rainwise IP-100,2013-03-07 07:48:00,
2013-03-07 01:51:00,43.0,16.0,28.70,SE,135,0.0,1.2,33,0.00,,,0.00,Rainwise IP-100,2013-03-07 07:51:00,
2013-03-07 01:56:00,42.9,16.0,28.69,SE,135,1.4,1.4,33,0.00,,,0.00,Rainwise IP-100,2013-03-07 07:56:00,
2013-03-07 02:01:00,42.8,16.0,28.69,SE,135,0.0,1.9,33,0.00,,,0.00,Rainwise IP-100,2013-03-07 08:01:00,
2013-03-07 02:06:00,42.8,16.0,28.69,SE,135,1.4,1.9,33,0.00,,,0.00,Rainwise IP-100,2013-03-07 08:06:00,
2013-03-07 02:11:00,42.8,16.0,28.69,SE,135,1.6,1.9,33,0.00,,,0.00,Rainwise IP-100,2013-03-07 08:11:00,
2013-03-07 02:16:00,42.6,16.0,28.68,SE,135,0.0,1.6,33,0.00,,,0.00,Rainwise IP-100,2013-03-07 08:16:00,
2013-03-07 02:21:00,42.5,18.0,28.68,SE,135,1.2,2.3,34,0.00,,,0.00,Rainwise IP-100,2013-03-07 08:21:00,
2013-03-07 02:26:00,42.5,18.0,28.68,SE,135,1.4,2.3,34,0.00,,,0.00,Rainwise IP-100,2013-03-07 08:26:00,
2013-03-07 02:31:00,42.4,16.0,28.68,SE,135,1.6,2.8,34,0.00,,,0.00,Rainwise IP-100,2013-03-07 08:31:00,
2013-03-07 02:36:00,42.3,16.0,28.68,SE,135,1.9,2.8,34,0.00,,,0.00,Rainwise IP-100,2013-03-07 08:36:00,
2013-03-07 02:41:00,42.3,16.0,28.68,SE,135,1.9,2.6,34,0.00,,,0.00,Rainwise IP-100,2013-03-07 08:41:00,
2013-03-07 02:46:00,42.1,16.0,28.68,SE,135,2.3,2.8,34,0.00,,,0.00,Rainwise IP-100,2013-03-07 08:46:00,
2013-03-07 02:51:00,42.0,16.0,28.67,SE,135,1.4,2.6,34,0.00,,,0.00,Rainwise IP-100,2013-03-07 08:51:00,
2013-03-07 02:56:00,41.8,16.0,28.68,SE,135,0.0,2.3,34,0.00,,,0.00,Rainwise IP-100,2013-03-07 08:56:00,
2013-03-07 03:01:00,41.6,16.0,28.68,SE,135,0.0,1.6,35,0.00,,,0.00,Rainwise IP-100,2013-03-07 09:01:00,
2013-03-07 03:06:00,41.5,16.0,28.68,SE,135,0.0,1.2,35,0.00,,,0.00,Rainwise IP-100,2013-03-07 09:06:00,
2013-03-07 03:11:00,41.5,16.0,28.68,SE,135,0.0,0.0,35,0.00,,,0.00,Rainwise IP-100,2013-03-07 09:11:00,
2013-03-07 03:16:00,40.9,16.0,28.67,SE,135,0.0,0.0,35,0.00,,,0.00,Rainwise IP-100,2013-03-07 09:16:00,
2013-03-07 03:21:00,40.3,16.0,28.67,SE,135,1.2,3.0,36,0.00,,,0.00,Rainwise IP-100,2013-03-07 09:21:00,
2013-03-07 03:26:00,40.6,16.0,28.67,SSE,157,1.4,3.0,36,0.00,,,0.00,Rainwise IP-100,2013-03-07 09:26:00,
2013-03-07 03:31:00,41.1,16.0,28.67,SSE,157,1.9,1.9,36,0.00,,,0.00,Rainwise IP-100,2013-03-07 09:31:00,
2013-03-07 03:36:00,41.2,16.0,28.66,SSE,157,0.0,2.1,36,0.00,,,0.00,Rainwise IP-100,2013-03-07 09:36:00,
2013-03-07 03:41:00,41.2,16.0,28.67,SSE,157,1.9,2.6,36,0.00,,,0.00,Rainwise IP-100,2013-03-07 09:41:00,
2013-03-07 03:46:00,41.4,16.0,28.67,SSE,157,0.0,2.8,35,0.00,,,0.00,Rainwise IP-100,2013-03-07 09:46:00,
2013-03-07 03:51:00,41.6,16.0,28.67,SSE,157,0.0,2.1,35,0.00,,,0.00,Rainwise IP-100,2013-03-07 09:51:00,
2013-03-07 03:56:00,41.5,16.0,28.67,SSE,157,1.6,2.3,35,0.00,,,0.00,Rainwise IP-100,2013-03-07 09:56:00,
2013-03-07 04:01:00,41.4,16.0,28.66,SSE,157,1.2,1.6,35,0.00,,,0.00,Rainwise IP-100,2013-03-07 10:01:00,
2013-03-07 04:07:00,41.2,16.0,28.66,SSE,157,0.0,1.4,36,0.00,,,0.00,Rainwise IP-100,2013-03-07 10:07:00,
2013-03-07 04:12:00,41.0,16.0,28.66,SSE,157,0.0,0.0,36,0.00,,,0.00,Rainwise IP-100,2013-03-07 10:12:00,
2013-03-07 04:17:00,40.9,16.0,28.67,SSE,157,0.0,0.0,36,0.00,,,0.00,Rainwise IP-100,2013-03-07 10:17:00,
2013-03-07 04:22:00,40.8,16.0,28.67,SSE,157,0.0,0.0,36,0.00,,,0.00,Rainwise IP-100,2013-03-07 10:22:00,
2013-03-07 04:27:00,41.0,16.0,28.66,SSE,157,0.0,0.0,36,0.00,,,0.00,Rainwise IP-100,2013-03-07 10:27:00,
2013-03-07 04:32:00,41.3,16.0,28.67,SSE,157,0.0,0.0,36,0.00,,,0.00,Rainwise IP-100,2013-03-07 10:32:00,
2013-03-07 04:37:00,41.3,16.0,28.66,SSE,157,0.0,1.4,36,0.00,,,0.00,Rainwise IP-100,2013-03-07 10:37:00,
2013-03-07 04:42:00,41.3,16.0,28.66,SSE,157,1.6,2.3,36,0.00,,,0.00,Rainwise IP-100,2013-03-07 10:42:00,
2013-03-07 04:47:00,41.5,18.0,28.67,SSE,157,0.0,2.3,36,0.00,,,0.00,Rainwise IP-100,2013-03-07 10:47:00,
2013-03-07 04:52:00,41.9,18.0,28.67,SSE,157,0.0,1.6,36,0.00,,,0.00,Rainwise IP-100,2013-03-07 10:52:00,
2013-03-07 04:57:00,42.1,18.0,28.66,SSE,157,1.2,1.9,36,0.00,,,0.00,Rainwise IP-100,2013-03-07 10:57:00,
2013-03-07 05:02:00,42.0,18.0,28.67,SSE,157,1.4,2.3,36,0.00,,,0.00,Rainwise IP-100,2013-03-07 11:02:00,
2013-03-07 05:07:00,42.0,18.0,28.66,SSE,157,1.6,2.1,36,0.00,,,0.00,Rainwise IP-100,2013-03-07 11:07:00,
2013-03-07 05:12:00,42.0,18.0,28.67,SSE,157,2.6,3.3,36,0.00,,,0.00,Rainwise IP-100,2013-03-07 11:12:00,
2013-03-07 05:17:00,42.1,18.0,28.67,SE,135,2.3,4.0,36,0.00,,,0.00,Rainwise IP-100,2013-03-07 11:17:00,
2013-03-07 05:22:00,42.1,18.0,28.67,SE,135,3.3,3.5,37,0.00,,,0.00,Rainwise IP-100,2013-03-07 11:22:00,
2013-03-07 05:28:00,42.3,18.0,28.67,SE,135,1.9,4.2,36,0.00,,,0.00,Rainwise IP-100,2013-03-07 11:28:00,
2013-03-07 05:33:00,42.4,18.0,28.67,SE,135,2.6,3.7,36,0.00,,,0.00,Rainwise IP-100,2013-03-07 11:33:00,
2013-03-07 05:38:00,42.3,18.0,28.67,SE,135,2.8,4.9,37,0.00,,,0.00,Rainwise IP-100,2013-03-07 11:38:00,
2013-03-07 05:43:00,42.2,18.0,28.68,SE,135,3.5,5.1,37,0.00,,,0.00,Rainwise IP-100,2013-03-07 11:43:00,
2013-03-07 05:48:00,42.3,18.0,28.67,SE,135,2.6,4.4,37,0.00,,,0.00,Rainwise IP-100,2013-03-07 11:48:00,
2013-03-07 05:53:00,42.5,18.0,28.68,SSE,157,2.8,4.4,37,0.00,,,0.00,Rainwise IP-100,2013-03-07 11:53:00,
2013-03-07 05:58:00,42.6,18.0,28.68,SE,135,1.6,4.2,37,0.00,,,0.00,Rainwise IP-100,2013-03-07 11:58:00,
2013-03-07 06:03:00,42.6,18.0,28.67,SE,135,1.4,4.0,37,0.00,,,0.00,Rainwise IP-100,2013-03-07 12:03:00,
2013-03-07 06:08:00,42.6,18.0,28.68,SSE,157,1.6,4.0,37,0.00,,,0.00,Rainwise IP-100,2013-03-07 12:08:00,
2013-03-07 06:13:00,42.8,18.0,28.68,SE,135,1.2,5.1,37,0.00,,,0.00,Rainwise IP-100,2013-03-07 12:13:00,
2013-03-07 06:18:00,43.1,18.0,28.69,SSE,157,4.7,6.5,37,0.00,,,0.00,Rainwise IP-100,2013-03-07 12:18:00,
2013-03-07 06:23:00,43.5,18.0,28.68,SE,135,3.0,7.2,36,0.00,,,0.00,Rainwise IP-100,2013-03-07 12:23:00,
2013-03-07 06:28:00,43.8,18.0,28.68,SE,135,5.1,6.5,36,0.00,,,0.00,Rainwise IP-100,2013-03-07 12:28:00,
2013-03-07 06:33:00,44.0,18.0,28.69,SE,135,4.4,8.2,36,0.00,,,0.00,Rainwise IP-100,2013-03-07 12:33:00,
2013-03-07 06:38:00,44.2,18.0,28.69,SSE,157,4.4,6.3,36,0.00,,,0.00,Rainwise IP-100,2013-03-07 12:38:00,
2013-03-07 06:43:00,44.3,18.0,28.69,SE,135,2.8,7.7,36,0.00,,,0.00,Rainwise IP-100,2013-03-07 12:43:00,
2013-03-07 06:48:00,44.5,21.0,28.69,SSE,157,2.1,7.0,36,0.00,,,0.00,Rainwise IP-100,2013-03-07 12:48:00,
2013-03-07 06:53:00,44.4,18.0,28.70,SE,135,4.2,6.3,36,0.00,,,0.00,Rainwise IP-100,2013-03-07 12:53:00,
2013-03-07 06:58:00,44.3,18.0,28.70,SE,135,1.9,6.8,36,0.00,,,0.00,Rainwise IP-100,2013-03-07 12:58:00,
2013-03-07 07:03:00,44.1,18.0,28.70,SE,135,3.7,5.6,36,0.00,,,0.00,Rainwise IP-100,2013-03-07 13:03:00,
2013-03-07 07:08:00,44.0,18.0,28.70,SE,135,3.5,7.7,36,0.00,,,0.00,Rainwise IP-100,2013-03-07 13:08:00,
2013-03-07 07:13:00,44.0,21.0,28.70,SE,135,3.7,7.2,37,0.00,,,0.00,Rainwise IP-100,2013-03-07 13:13:00,
2013-03-07 07:18:00,44.0,21.0,28.70,SSE,157,4.4,8.6,37,0.00,,,0.00,Rainwise IP-100,2013-03-07 13:18:00,
2013-03-07 07:23:00,44.2,21.0,28.71,SSE,157,4.0,7.7,38,0.00,,,0.00,Rainwise IP-100,2013-03-07 13:23:00,
2013-03-07 07:28:00,44.4,21.0,28.71,SSE,157,9.3,9.3,38,0.00,,,0.00,Rainwise IP-100,2013-03-07 13:28:00,
2013-03-07 07:33:00,44.6,21.0,28.71,ESE,112,4.4,9.8,38,0.00,,,0.00,Rainwise IP-100,2013-03-07 13:33:00,
2013-03-07 07:38:00,44.8,21.0,28.72,SSE,157,4.4,9.8,38,0.00,,,0.00,Rainwise IP-100,2013-03-07 13:38:00,
2013-03-07 07:43:00,44.9,21.0,28.72,SE,135,4.9,8.4,38,0.00,,,0.00,Rainwise IP-100,2013-03-07 13:43:00,
2013-03-07 07:48:00,45.0,21.0,28.72,SE,135,5.8,9.6,38,0.00,,,0.00,Rainwise IP-100,2013-03-07 13:48:00,
2013-03-07 07:53:00,45.2,21.0,28.72,SE,135,6.5,9.6,38,0.00,,,0.00,Rainwise IP-100,2013-03-07 13:53:00,
2013-03-07 07:58:00,45.2,21.0,28.72,SSE,157,5.1,8.4,38,0.00,,,0.00,Rainwise IP-100,2013-03-07 13:58:00,
2013-03-07 08:03:00,45.2,21.0,28.73,SSE,157,4.0,8.6,38,0.00,,,0.00,Rainwise IP-100,2013-03-07 14:03:00,
2013-03-07 08:08:00,45.4,21.0,28.73,SE,135,3.0,7.5,38,0.00,,,0.00,Rainwise IP-100,2013-03-07 14:08:00,
2013-03-07 08:13:00,45.8,23.0,28.73,SSE,157,5.6,8.4,39,0.00,,,0.00,Rainwise IP-100,2013-03-07 14:13:00,
2013-03-07 08:18:00,46.4,23.0,28.74,SSE,157,6.8,9.1,39,0.00,,,0.00,Rainwise IP-100,2013-03-07 14:18:00,
2013-03-07 08:23:00,46.8,23.0,28.74,South,180,4.2,8.9,38,0.00,,,0.00,Rainwise IP-100,2013-03-07 14:23:00,
2013-03-07 08:28:00,47.2,23.0,28.74,SSE,157,4.0,11.4,38,0.00,,,0.00,Rainwise IP-100,2013-03-07 14:28:00,
2013-03-07 08:33:00,47.6,24.0,28.74,SSE,157,7.5,11.9,38,0.00,,,0.00,Rainwise IP-100,2013-03-07 14:33:00,
2013-03-07 08:38:00,47.9,24.0,28.74,SE,135,3.7,12.1,38,0.00,,,0.00,Rainwise IP-100,2013-03-07 14:38:00,
2013-03-07 08:43:00,48.2,24.0,28.74,SSE,157,6.5,11.4,38,0.00,,,0.00,Rainwise IP-100,2013-03-07 14:43:00,
2013-03-07 08:48:00,48.5,24.0,28.74,South,180,8.4,10.3,37,0.00,,,0.00,Rainwise IP-100,2013-03-07 14:48:00,
2013-03-07 08:53:00,48.9,24.0,28.74,SSE,157,5.1,14.2,37,0.00,,,0.00,Rainwise IP-100,2013-03-07 14:53:00,
2013-03-07 08:58:00,49.2,24.0,28.74,ESE,112,7.0,12.8,37,0.00,,,0.00,Rainwise IP-100,2013-03-07 14:58:00,
2013-03-07 09:03:00,49.4,24.0,28.74,SSE,157,8.9,14.0,37,0.00,,,0.00,Rainwise IP-100,2013-03-07 15:03:00,
2013-03-07 09:08:00,49.7,24.0,28.74,South,180,5.8,13.1,37,0.00,,,0.00,Rainwise IP-100,2013-03-07 15:08:00,
2013-03-07 09:13:00,50.0,24.0,28.74,SSE,157,7.7,13.3,37,0.00,,,0.00,Rainwise IP-100,2013-03-07 15:13:00,
2013-03-07 09:18:00,50.2,24.0,28.74,SSE,157,8.6,14.7,37,0.00,,,0.00,Rainwise IP-100,2013-03-07 15:18:00,
2013-03-07 09:23:00,50.3,26.0,28.74,SSE,157,13.3,14.2,37,0.00,,,0.00,Rainwise IP-100,2013-03-07 15:23:00,
2013-03-07 09:28:00,50.6,26.0,28.74,SSE,157,5.8,14.9,37,0.00,,,0.00,Rainwise IP-100,2013-03-07 15:28:00,
2013-03-07 09:33:00,50.9,26.0,28.74,South,180,7.9,14.2,38,0.00,,,0.00,Rainwise IP-100,2013-03-07 15:33:00,
2013-03-07 09:38:00,51.1,26.0,28.74,SE,135,7.0,14.7,38,0.00,,,0.00,Rainwise IP-100,2013-03-07 15:38:00,
2013-03-07 09:43:00,51.4,28.0,28.74,SSE,157,4.4,11.4,39,0.00,,,0.00,Rainwise IP-100,2013-03-07 15:43:00,
2013-03-07 09:48:00,51.9,28.0,28.74,SSE,157,10.7,12.4,39,0.00,,,0.00,Rainwise IP-100,2013-03-07 15:48:00,
2013-03-07 09:53:00,52.2,28.0,28.74,SSW,202,6.5,13.3,39,0.00,,,0.00,Rainwise IP-100,2013-03-07 15:53:00,
2013-03-07 09:58:00,52.7,29.0,28.74,SE,135,12.4,13.1,39,0.00,,,0.00,Rainwise IP-100,2013-03-07 15:58:00,
2013-03-07 10:03:00,53.2,28.0,28.74,SSE,157,6.8,15.4,38,0.00,,,0.00,Rainwise IP-100,2013-03-07 16:03:00,
2013-03-07 10:08:00,53.8,29.0,28.74,SE,135,8.9,12.8,38,0.00,,,0.00,Rainwise IP-100,2013-03-07 16:08:00,
2013-03-07 10:13:00,54.5,29.0,28.74,SSE,157,10.3,13.5,38,0.00,,,0.00,Rainwise IP-100,2013-03-07 16:13:00,
2013-03-07 10:18:00,55.0,29.0,28.74,SSE,157,5.8,14.2,37,0.00,,,0.00,Rainwise IP-100,2013-03-07 16:18:00,
2013-03-07 10:23:00,55.5,31.0,28.74,SSE,157,12.8,13.8,37,0.00,,,0.00,Rainwise IP-100,2013-03-07 16:23:00,
2013-03-07 10:28:00,55.9,29.0,28.74,SSE,157,6.5,15.9,36,0.00,,,0.00,Rainwise IP-100,2013-03-07 16:28:00,
2013-03-07 10:33:00,55.8,31.0,28.74,SSE,157,7.2,15.4,37,0.00,,,0.00,Rainwise IP-100,2013-03-07 16:33:00,
2013-03-07 10:38:00,55.8,31.0,28.74,SE,135,15.6,15.6,37,0.00,,,0.00,Rainwise IP-100,2013-03-07 16:38:00,
2013-03-07 10:43:00,55.9,31.0,28.73,SSE,157,11.7,15.6,37,0.00,,,0.00,Rainwise IP-100,2013-03-07 16:43:00,
2013-03-07 10:48:00,56.0,29.0,28.73,SSE,157,9.6,14.7,36,0.00,,,0.00,Rainwise IP-100,2013-03-07 16:48:00,
2013-03-07 10:53:00,56.5,31.0,28.73,SSE,157,13.3,14.9,36,0.00,,,0.00,Rainwise IP-100,2013-03-07 16:53:00,
2013-03-07 10:58:00,57.0,31.0,28.73,SSE,157,4.0,16.3,36,0.00,,,0.00,Rainwise IP-100,2013-03-07 16:58:00,
2013-03-07 11:03:00,57.4,31.0,28.73,SSE,157,7.7,12.8,36,0.00,,,0.00,Rainwise IP-100,2013-03-07 17:03:00,
2013-03-07 11:08:00,58.0,32.0,28.73,South,180,10.3,17.3,36,0.00,,,0.00,Rainwise IP-100,2013-03-07 17:08:00,
2013-03-07 11:13:00,58.3,32.0,28.72,ESE,112,12.1,16.8,37,0.00,,,0.00,Rainwise IP-100,2013-03-07 17:13:00,
2013-03-07 11:18:00,58.6,33.0,28.72,South,180,7.2,14.0,37,0.00,,,0.00,Rainwise IP-100,2013-03-07 17:18:00,
2013-03-07 11:23:00,58.8,33.0,28.72,ESE,112,6.3,14.7,37,0.00,,,0.00,Rainwise IP-100,2013-03-07 17:23:00,
2013-03-07 11:28:00,59.0,33.0,28.72,SSE,157,10.5,14.0,38,0.00,,,0.00,Rainwise IP-100,2013-03-07 17:28:00,
2013-03-07 11:33:00,59.5,33.0,28.72,SSE,157,5.1,12.1,38,0.00,,,0.00,Rainwise IP-100,2013-03-07 17:33:00,
2013-03-07 11:38:00,60.0,35.0,28.72,SSE,157,12.6,14.7,38,0.00,,,0.00,Rainwise IP-100,2013-03-07 17:38:00,
2013-03-07 11:43:00,60.1,35.0,28.71,South,180,7.9,13.8,38,0.00,,,0.00,Rainwise IP-100,2013-03-07 17:43:00,
2013-03-07 11:48:00,60.9,36.0,28.71,South,180,11.2,13.3,38,0.00,,,0.00,Rainwise IP-100,2013-03-07 17:48:00,
2013-03-07 11:53:00,61.7,36.0,28.71,SSE,157,9.6,11.9,38,0.00,,,0.00,Rainwise IP-100,2013-03-07 17:53:00,
2013-03-07 11:58:00,62.2,36.0,28.70,South,180,11.9,14.5,37,0.00,,,0.00,Rainwise IP-100,2013-03-07 17:58:00,
2013-03-07 12:03:00,62.6,36.0,28.70,SSE,157,6.5,14.9,37,0.00,,,0.00,Rainwise IP-100,2013-03-07 18:03:00,
2013-03-07 12:08:00,62.8,36.0,28.70,SSE,157,6.1,11.9,37,0.00,,,0.00,Rainwise IP-100,2013-03-07 18:08:00,
2013-03-07 12:13:00,63.1,36.0,28.69,ESE,112,6.8,15.2,37,0.00,,,0.00,Rainwise IP-100,2013-03-07 18:13:00,
2013-03-07 12:18:00,63.4,37.0,28.69,South,180,12.6,12.6,37,0.00,,,0.00,Rainwise IP-100,2013-03-07 18:18:00,
2013-03-07 12:23:00,63.8,37.0,28.69,SSE,157,10.3,15.6,37,0.00,,,0.00,Rainwise IP-100,2013-03-07 18:23:00,
2013-03-07 12:28:00,63.8,37.0,28.69,ESE,112,14.7,14.7,37,0.00,,,0.00,Rainwise IP-100,2013-03-07 18:28:00,
2013-03-07 12:33:00,63.5,37.0,28.69,SE,135,12.6,16.6,38,0.00,,,0.00,Rainwise IP-100,2013-03-07 18:33:00,
2013-03-07 12:38:00,63.4,37.0,28.69,SSE,157,5.1,15.6,38,0.00,,,0.00,Rainwise IP-100,2013-03-07 18:38:00,
2013-03-07 12:43:00,63.9,38.0,28.68,SE,135,6.8,15.4,39,0.00,,,0.00,Rainwise IP-100,2013-03-07 18:43:00,
2013-03-07 12:48:00,64.4,39.0,28.68,SSE,157,11.0,13.3,39,0.00,,,0.00,Rainwise IP-100,2013-03-07 18:48:00,
2013-03-07 12:53:00,64.3,39.0,28.68,ESE,112,3.5,14.2,40,0.00,,,0.00,Rainwise IP-100,2013-03-07 18:53:00,
2013-03-07 12:58:00,64.7,39.0,28.68,SSE,157,10.3,16.1,40,0.00,,,0.00,Rainwise IP-100,2013-03-07 18:58:00,
2013-03-07 13:03:00,65.0,39.0,28.67,SE,135,6.5,14.2,39,0.00,,,0.00,Rainwise IP-100,2013-03-07 19:03:00,
2013-03-07 13:08:00,64.9,39.0,28.67,SE,135,8.4,13.5,39,0.00,,,0.00,Rainwise IP-100,2013-03-07 19:08:00,
2013-03-07 13:13:00,65.4,40.0,28.67,SE,135,5.1,16.6,39,0.00,,,0.00,Rainwise IP-100,2013-03-07 19:13:00,
2013-03-07 13:18:00,65.9,40.0,28.66,ESE,112,7.9,15.9,39,0.00,,,0.00,Rainwise IP-100,2013-03-07 19:18:00,
2013-03-07 13:23:00,66.4,40.0,28.66,ESE,112,4.7,13.1,38,0.00,,,0.00,Rainwise IP-100,2013-03-07 19:23:00,
2013-03-07 13:28:00,67.2,40.0,28.66,SSE,157,8.2,15.9,37,0.00,,,0.00,Rainwise IP-100,2013-03-07 19:28:00,
2013-03-07 13:33:00,67.5,40.0,28.66,ESE,112,7.2,13.3,37,0.00,,,0.00,Rainwise IP-100,2013-03-07 19:33:00,
2013-03-07 13:38:00,67.7,39.0,28.65,SE,135,6.8,17.0,36,0.00,,,0.00,Rainwise IP-100,2013-03-07 19:38:00,
2013-03-07 13:43:00,68.0,40.0,28.64,ESE,112,9.8,13.1,36,0.00,,,0.00,Rainwise IP-100,2013-03-07 19:43:00,
2013-03-07 13:48:00,67.8,41.0,28.65,South,180,9.1,21.0,37,0.00,,,0.00,Rainwise IP-100,2013-03-07 19:48:00,
2013-03-07 13:53:00,67.5,40.0,28.64,SSE,157,5.6,15.6,37,0.00,,,0.00,Rainwise IP-100,2013-03-07 19:53:00,
2013-03-07 13:58:00,68.0,40.0,28.64,SSE,157,11.9,16.1,36,0.00,,,0.00,Rainwise IP-100,2013-03-07 19:58:00,
2013-03-07 14:03:00,68.6,40.0,28.64,South,180,10.3,14.5,36,0.00,,,0.00,Rainwise IP-100,2013-03-07 20:03:00,
2013-03-07 14:08:00,68.7,40.0,28.64,ESE,112,7.0,14.5,36,0.00,,,0.00,Rainwise IP-100,2013-03-07 20:08:00,
2013-03-07 14:13:00,68.9,41.0,28.63,ESE,112,4.0,13.1,36,0.00,,,0.00,Rainwise IP-100,2013-03-07 20:13:00,
2013-03-07 14:18:00,69.2,41.0,28.63,ESE,112,5.4,16.8,36,0.00,,,0.00,Rainwise IP-100,2013-03-07 20:18:00,
2013-03-07 14:23:00,69.0,41.0,28.63,SSE,157,7.5,14.2,36,0.00,,,0.00,Rainwise IP-100,2013-03-07 20:23:00,
2013-03-07 14:28:00,69.2,41.0,28.63,South,180,8.6,13.5,36,0.00,,,0.00,Rainwise IP-100,2013-03-07 20:28:00,
2013-03-07 14:33:00,69.6,41.0,28.62,SSE,157,9.1,13.3,36,0.00,,,0.00,Rainwise IP-100,2013-03-07 20:33:00,
2013-03-07 14:38:00,69.6,41.0,28.62,South,180,13.1,16.1,35,0.00,,,0.00,Rainwise IP-100,2013-03-07 20:38:00,
2013-03-07 14:43:00,69.3,40.0,28.62,South,180,4.0,15.4,35,0.00,,,0.00,Rainwise IP-100,2013-03-07 20:43:00,
2013-03-07 14:48:00,69.2,40.0,28.61,South,180,8.2,19.1,35,0.00,,,0.00,Rainwise IP-100,2013-03-07 20:48:00,
2013-03-07 14:53:00,69.7,41.0,28.61,SE,135,4.7,16.6,35,0.00,,,0.00,Rainwise IP-100,2013-03-07 20:53:00,
2013-03-07 14:58:00,69.8,41.0,28.62,SSE,157,6.8,23.8,35,0.00,,,0.00,Rainwise IP-100,2013-03-07 20:58:00,
2013-03-07 15:03:00,69.9,41.0,28.61,SE,135,14.7,15.2,35,0.00,,,0.00,Rainwise IP-100,2013-03-07 21:03:00,
2013-03-07 15:08:00,70.2,41.0,28.61,SSE,157,9.3,16.3,35,0.00,,,0.00,Rainwise IP-100,2013-03-07 21:08:00,
2013-03-07 15:13:00,70.3,41.0,28.61,SSE,157,10.7,16.3,35,0.00,,,0.00,Rainwise IP-100,2013-03-07 21:13:00,
2013-03-07 15:18:00,70.3,41.0,28.60,SE,135,8.6,13.3,35,0.00,,,0.00,Rainwise IP-100,2013-03-07 21:18:00,
2013-03-07 15:23:00,70.4,41.0,28.60,SSE,157,8.2,14.2,35,0.00,,,0.00,Rainwise IP-100,2013-03-07 21:23:00,
2013-03-07 15:28:00,70.2,41.0,28.60,SE,135,9.8,18.0,35,0.00,,,0.00,Rainwise IP-100,2013-03-07 21:28:00,
2013-03-07 15:33:00,70.5,41.0,28.59,ESE,112,7.7,14.2,35,0.00,,,0.00,Rainwise IP-100,2013-03-07 21:33:00,
2013-03-07 15:38:00,71.0,42.0,28.59,East,90,7.5,19.6,35,0.00,,,0.00,Rainwise IP-100,2013-03-07 21:38:00,
2013-03-07 15:43:00,70.8,42.0,28.60,ESE,112,8.9,19.8,35,0.00,,,0.00,Rainwise IP-100,2013-03-07 21:43:00,
2013-03-07 15:48:00,70.7,41.0,28.60,SSE,157,3.7,14.2,35,0.00,,,0.00,Rainwise IP-100,2013-03-07 21:48:00,
2013-03-07 15:53:00,70.8,42.0,28.60,ESE,112,8.4,19.4,35,0.00,,,0.00,Rainwise IP-100,2013-03-07 21:53:00,
2013-03-07 15:58:00,70.6,41.0,28.60,SSE,157,7.9,18.7,35,0.00,,,0.00,Rainwise IP-100,2013-03-07 21:58:00,
2013-03-07 16:03:00,70.5,41.0,28.60,SE,135,4.4,13.1,35,0.00,,,0.00,Rainwise IP-100,2013-03-07 22:03:00,
2013-03-07 16:08:00,70.9,42.0,28.59,SSE,157,6.3,13.5,35,0.00,,,0.00,Rainwise IP-100,2013-03-07 22:08:00,
2013-03-07 16:13:00,71.2,41.0,28.60,SSE,157,4.7,13.8,34,0.00,,,0.00,Rainwise IP-100,2013-03-07 22:13:00,
2013-03-07 16:18:00,71.4,41.0,28.60,SSE,157,10.0,19.6,34,0.00,,,0.00,Rainwise IP-100,2013-03-07 22:18:00,
2013-03-07 16:23:00,71.3,41.0,28.59,South,180,4.4,18.0,34,0.00,,,0.00,Rainwise IP-100,2013-03-07 22:23:00,
2013-03-07 16:28:00,71.2,41.0,28.59,SSE,157,10.0,17.0,34,0.00,,,0.00,Rainwise IP-100,2013-03-07 22:28:00,
2013-03-07 16:33:00,70.8,41.0,28.60,SSE,157,8.9,15.2,34,0.00,,,0.00,Rainwise IP-100,2013-03-07 22:33:00,
2013-03-07 16:38:00,70.0,42.0,28.60,ESE,112,6.1,17.0,36,0.00,,,0.00,Rainwise IP-100,2013-03-07 22:38:00,
2013-03-07 16:43:00,69.7,41.0,28.60,SE,135,10.0,14.2,36,0.00,,,0.00,Rainwise IP-100,2013-03-07 22:43:00,
2013-03-07 16:48:00,69.9,42.0,28.60,ESE,112,6.5,15.9,37,0.00,,,0.00,Rainwise IP-100,2013-03-07 22:48:00,
2013-03-07 16:53:00,69.9,42.0,28.60,South,180,14.5,15.2,37,0.00,,,0.00,Rainwise IP-100,2013-03-07 22:53:00,
2013-03-07 16:58:00,69.7,42.0,28.60,SSE,157,4.9,21.2,37,0.00,,,0.00,Rainwise IP-100,2013-03-07 22:58:00,
2013-03-07 17:03:00,69.2,42.0,28.60,SSE,157,7.9,19.8,37,0.00,,,0.00,Rainwise IP-100,2013-03-07 23:03:00,
2013-03-07 17:08:00,68.8,42.0,28.60,South,180,7.0,16.3,38,0.00,,,0.00,Rainwise IP-100,2013-03-07 23:08:00,
2013-03-07 17:13:00,68.5,42.0,28.61,ESE,112,12.8,19.8,38,0.00,,,0.00,Rainwise IP-100,2013-03-07 23:13:00,
2013-03-07 17:18:00,68.6,42.0,28.60,SSE,157,12.8,17.0,39,0.00,,,0.00,Rainwise IP-100,2013-03-07 23:18:00,
2013-03-07 17:23:00,68.4,42.0,28.60,SSE,157,9.1,17.7,39,0.00,,,0.00,Rainwise IP-100,2013-03-07 23:23:00,
2013-03-07 17:28:00,68.0,42.0,28.60,South,180,13.8,17.5,39,0.00,,,0.00,Rainwise IP-100,2013-03-07 23:28:00,
2013-03-07 17:33:00,67.8,43.0,28.61,SE,135,7.2,16.6,40,0.00,,,0.00,Rainwise IP-100,2013-03-07 23:33:00,
2013-03-07 17:38:00,67.7,42.0,28.61,SSE,157,5.8,14.5,40,0.00,,,0.00,Rainwise IP-100,2013-03-07 23:38:00,
2013-03-07 17:43:00,67.7,42.0,28.61,SE,135,4.9,17.7,40,0.00,,,0.00,Rainwise IP-100,2013-03-07 23:43:00,
2013-03-07 17:48:00,67.6,42.0,28.61,SE,135,6.8,15.9,40,0.00,,,0.00,Rainwise IP-100,2013-03-07 23:48:00,
2013-03-07 17:53:00,67.6,43.0,28.61,SSE,157,7.9,14.7,41,0.00,,,0.00,Rainwise IP-100,2013-03-07 23:53:00,
2013-03-07 17:58:00,67.5,43.0,28.61,SSE,157,7.9,19.1,41,0.00,,,0.00,Rainwise IP-100,2013-03-07 23:58:00,
2013-03-07 18:03:00,67.2,42.0,28.62,SE,135,5.8,15.4,41,0.00,,,0.00,Rainwise IP-100,2013-03-08 00:03:00,
2013-03-07 18:08:00,66.8,42.0,28.61,SSE,157,3.0,13.5,41,0.00,,,0.00,Rainwise IP-100,2013-03-08 00:08:00,
2013-03-07 18:13:00,66.4,42.0,28.62,SSE,157,5.8,12.1,42,0.00,,,0.00,Rainwise IP-100,2013-03-08 00:13:00,
2013-03-07 18:18:00,66.2,42.0,28.62,SE,135,5.4,14.7,42,0.00,,,0.00,Rainwise IP-100,2013-03-08 00:18:00,
2013-03-07 18:23:00,66.0,43.0,28.62,SE,135,7.0,10.0,43,0.00,,,0.00,Rainwise IP-100,2013-03-08 00:23:00,
2013-03-07 18:28:00,65.7,42.0,28.62,SSE,157,2.6,12.4,43,0.00,,,0.00,Rainwise IP-100,2013-03-08 00:28:00,
2013-03-07 18:33:00,65.4,43.0,28.62,ESE,112,6.5,10.0,44,0.00,,,0.00,Rainwise IP-100,2013-03-08 00:33:00,
2013-03-07 18:38:00,65.1,43.0,28.62,ESE,112,4.7,9.3,45,0.00,,,0.00,Rainwise IP-100,2013-03-08 00:38:00,
2013-03-07 18:43:00,64.9,43.0,28.63,SSE,157,7.5,10.7,45,0.00,,,0.00,Rainwise IP-100,2013-03-08 00:43:00,
2013-03-07 18:48:00,64.7,43.0,28.63,SE,135,4.2,11.0,46,0.00,,,0.00,Rainwise IP-100,2013-03-08 00:48:00,
2013-03-07 18:53:00,64.6,43.0,28.63,SSE,157,4.0,11.7,46,0.00,,,0.00,Rainwise IP-100,2013-03-08 00:53:00,
2013-03-07 18:58:00,64.5,44.0,28.63,SE,135,4.2,11.9,47,0.00,,,0.00,Rainwise IP-100,2013-03-08 00:58:00,
2013-03-07 19:03:00,64.3,44.0,28.63,SE,135,3.7,8.9,47,0.00,,,0.00,Rainwise IP-100,2013-03-08 01:03:00,
2013-03-07 19:08:00,64.1,44.0,28.64,SE,135,4.7,9.6,48,0.00,,,0.00,Rainwise IP-100,2013-03-08 01:08:00,
2013-03-07 19:13:00,63.9,44.0,28.63,SE,135,4.4,7.5,49,0.00,,,0.00,Rainwise IP-100,2013-03-08 01:13:00,
2013-03-07 19:18:00,63.6,44.0,28.62,SE,135,3.5,10.0,49,0.00,,,0.00,Rainwise IP-100,2013-03-08 01:18:00,
2013-03-07 19:23:00,63.5,45.0,28.62,SE,135,2.6,7.7,50,0.00,,,0.00,Rainwise IP-100,2013-03-08 01:23:00,
2013-03-07 19:28:00,63.3,45.0,28.63,ESE,112,5.1,6.8,50,0.00,,,0.00,Rainwise IP-100,2013-03-08 01:28:00,
2013-03-07 19:33:00,63.1,45.0,28.62,ESE,112,4.0,6.8,51,0.00,,,0.00,Rainwise IP-100,2013-03-08 01:33:00,
2013-03-07 19:38:00,62.8,45.0,28.62,SE,135,5.1,6.3,51,0.00,,,0.00,Rainwise IP-100,2013-03-08 01:38:00,
2013-03-07 19:43:00,62.6,45.0,28.62,ESE,112,4.2,9.8,52,0.00,,,0.00,Rainwise IP-100,2013-03-08 01:43:00,
2013-03-07 19:48:00,62.5,45.0,28.63,ESE,112,5.4,9.3,52,0.00,,,0.00,Rainwise IP-100,2013-03-08 01:48:00,
2013-03-07 19:53:00,62.5,45.0,28.62,SE,135,5.4,8.2,53,0.00,,,0.00,Rainwise IP-100,2013-03-08 01:53:00,
2013-03-07 19:58:00,62.4,45.0,28.63,East,90,3.5,10.3,53,0.00,,,0.00,Rainwise IP-100,2013-03-08 01:58:00,
2013-03-07 20:03:00,62.4,45.0,28.63,SE,135,3.3,7.7,53,0.00,,,0.00,Rainwise IP-100,2013-03-08 02:03:00,
2013-03-07 20:08:00,62.2,45.0,28.63,East,90,3.0,7.5,53,0.00,,,0.00,Rainwise IP-100,2013-03-08 02:08:00,
2013-03-07 20:13:00,61.9,45.0,28.63,East,90,6.1,7.9,53,0.00,,,0.00,Rainwise IP-100,2013-03-08 02:13:00,
2013-03-07 20:18:00,61.5,44.0,28.62,ESE,112,4.4,7.9,53,0.00,,,0.00,Rainwise IP-100,2013-03-08 02:18:00,
2013-03-07 20:23:00,61.4,44.0,28.63,SE,135,4.0,7.7,53,0.00,,,0.00,Rainwise IP-100,2013-03-08 02:23:00,
2013-03-07 20:28:00,61.3,45.0,28.63,ESE,112,6.3,6.3,54,0.00,,,0.00,Rainwise IP-100,2013-03-08 02:28:00,
2013-03-07 20:33:00,61.3,45.0,28.62,ESE,112,5.6,7.2,54,0.00,,,0.00,Rainwise IP-100,2013-03-08 02:33:00,
2013-03-07 20:38:00,61.2,44.0,28.62,SE,135,1.6,8.9,54,0.00,,,0.00,Rainwise IP-100,2013-03-08 02:38:00,
2013-03-07 20:43:00,61.1,44.0,28.63,SE,135,2.3,7.5,54,0.00,,,0.00,Rainwise IP-100,2013-03-08 02:43:00,
2013-03-07 20:48:00,60.8,44.0,28.62,SE,135,3.0,6.8,54,0.00,,,0.00,Rainwise IP-100,2013-03-08 02:48:00,
2013-03-07 20:53:00,60.8,44.0,28.62,SE,135,4.7,9.3,54,0.00,,,0.00,Rainwise IP-100,2013-03-08 02:53:00,
2013-03-07 20:58:00,60.7,44.0,28.62,East,90,4.7,9.3,55,0.00,,,0.00,Rainwise IP-100,2013-03-08 02:58:00,
2013-03-07 21:03:00,60.6,44.0,28.62,SSE,157,4.0,8.6,55,0.00,,,0.00,Rainwise IP-100,2013-03-08 03:03:00,
2013-03-07 21:08:00,60.5,44.0,28.62,ESE,112,6.3,8.4,55,0.00,,,0.00,Rainwise IP-100,2013-03-08 03:08:00,
2013-03-07 21:13:00,60.3,44.0,28.62,SE,135,2.8,7.5,55,0.00,,,0.00,Rainwise IP-100,2013-03-08 03:13:00,
2013-03-07 21:18:00,60.1,44.0,28.63,SSE,157,3.5,8.4,56,0.00,,,0.00,Rainwise IP-100,2013-03-08 03:18:00,
2013-03-07 21:23:00,60.1,44.0,28.63,SE,135,3.7,8.9,56,0.00,,,0.00,Rainwise IP-100,2013-03-08 03:23:00,
2013-03-07 21:28:00,60.2,45.0,28.63,SE,135,5.4,7.0,57,0.00,,,0.00,Rainwise IP-100,2013-03-08 03:28:00,
2013-03-07 21:33:00,60.3,45.0,28.63,SSE,157,4.4,11.7,57,0.00,,,0.00,Rainwise IP-100,2013-03-08 03:33:00,
2013-03-07 21:38:00,60.3,45.0,28.63,ESE,112,7.0,7.0,57,0.00,,,0.00,Rainwise IP-100,2013-03-08 03:38:00,
2013-03-07 21:43:00,60.2,45.0,28.63,SSE,157,7.0,9.8,57,0.00,,,0.00,Rainwise IP-100,2013-03-08 03:43:00,
2013-03-07 21:48:00,60.1,45.0,28.63,SSE,157,4.0,10.3,58,0.00,,,0.00,Rainwise IP-100,2013-03-08 03:48:00,
2013-03-07 21:53:00,60.1,45.0,28.63,ESE,112,9.3,10.5,58,0.00,,,0.00,Rainwise IP-100,2013-03-08 03:53:00,
2013-03-07 21:58:00,59.9,46.0,28.63,ESE,112,4.9,9.8,59,0.00,,,0.00,Rainwise IP-100,2013-03-08 03:58:00,
2013-03-07 22:03:00,59.9,46.0,28.63,SSE,157,2.3,13.1,60,0.00,,,0.00,Rainwise IP-100,2013-03-08 04:03:00,
2013-03-07 22:08:00,59.8,46.0,28.63,ESE,112,9.1,11.4,60,0.00,,,0.00,Rainwise IP-100,2013-03-08 04:08:00,
2013-03-07 22:13:00,59.5,46.0,28.63,SSE,157,4.9,9.6,61,0.00,,,0.00,Rainwise IP-100,2013-03-08 04:13:00,
2013-03-07 22:18:00,59.3,46.0,28.64,SE,135,3.7,7.7,61,0.00,,,0.00,Rainwise IP-100,2013-03-08 04:18:00,
2013-03-07 22:23:00,59.1,46.0,28.64,SE,135,1.6,8.9,62,0.00,,,0.00,Rainwise IP-100,2013-03-08 04:23:00,
2013-03-07 22:28:00,58.9,47.0,28.64,SSE,157,1.9,8.4,63,0.00,,,0.00,Rainwise IP-100,2013-03-08 04:28:00,
2013-03-07 22:33:00,58.8,47.5,28.63,SE,135,7.2,9.1,65,0.00,,,0.00,Rainwise IP-100,2013-03-08 04:33:00,
2013-03-07 22:38:00,58.7,47.5,28.63,SSE,157,7.7,7.7,66,0.00,,,0.00,Rainwise IP-100,2013-03-08 04:38:00,
2013-03-07 22:43:00,58.8,48.0,28.63,SE,135,3.0,10.3,67,0.00,,,0.00,Rainwise IP-100,2013-03-08 04:43:00,
2013-03-07 22:48:00,58.9,48.0,28.63,SE,135,7.0,10.0,68,0.00,,,0.00,Rainwise IP-100,2013-03-08 04:48:00,
2013-03-07 22:53:00,58.9,49.0,28.63,SE,135,6.3,12.6,69,0.00,,,0.00,Rainwise IP-100,2013-03-08 04:53:00,
2013-03-07 22:58:00,59.0,49.0,28.63,SSE,157,4.0,11.4,70,0.00,,,0.00,Rainwise IP-100,2013-03-08 04:58:00,
2013-03-07 23:00:00,59.0,49.0,28.63,SSE,157,6.3,11.4,70,0.00,,,0.00,Rainwise IP-100,2013-03-08 05:00:00,
2013-03-07 23:05:00,59.1,50.0,28.63,SE,135,3.0,9.6,71,0.00,,,0.00,Rainwise IP-100,2013-03-08 05:05:00,
2013-03-07 23:10:00,59.3,50.0,28.63,SSE,157,4.9,9.3,71,0.00,,,0.00,Rainwise IP-100,2013-03-08 05:10:00,
2013-03-07 23:15:00,59.5,50.5,28.63,SE,135,4.7,13.8,72,0.00,,,0.00,Rainwise IP-100,2013-03-08 05:15:00,
2013-03-07 23:20:00,59.7,50.5,28.63,SSE,157,9.3,11.9,72,0.00,,,0.00,Rainwise IP-100,2013-03-08 05:20:00,
2013-03-07 23:25:00,59.9,51.0,28.63,SSE,157,9.1,17.7,73,0.00,,,0.00,Rainwise IP-100,2013-03-08 05:25:00,
2013-03-07 23:30:00,60.1,51.0,28.63,South,180,5.4,17.5,73,0.00,,,0.00,Rainwise IP-100,2013-03-08 05:30:00,
2013-03-07 23:32:00,60.2,51.0,28.63,East,90,5.1,17.5,73,0.00,,,0.00,Rainwise IP-100,2013-03-08 05:32:00,
2013-03-07 23:37:00,60.3,52.0,28.63,South,180,13.3,16.8,73,0.00,,,0.00,Rainwise IP-100,2013-03-08 05:37:00,
2013-03-07 23:42:00,60.4,52.0,28.63,SE,135,10.3,15.2,73,0.00,,,0.00,Rainwise IP-100,2013-03-08 05:42:00,
2013-03-07 23:47:00,60.4,52.0,28.63,ESE,112,2.3,12.8,74,0.00,,,0.00,Rainwise IP-100,2013-03-08 05:47:00,
2013-03-07 23:52:00,60.4,52.0,28.63,SSE,157,7.7,14.2,74,0.00,,,0.00,Rainwise IP-100,2013-03-08 05:52:00,
2013-03-07 23:57:00,60.4,52.0,28.63,SSE,157,11.0,14.5,74,0.00,,,0.00,Rainwise IP-100,2013-03-08 05:57:00,